Time,TemperatureF,DewpointF,PressureIn,WindDirection,WindDirectionDegrees,WindSpeedMPH,WindSpeedGustMPH,Humidity,HourlyPrecipIn,Conditions,Clouds,dailyrainin,SoftwareType,DateUTC
2013-12-05 00:02:00,59.0,52.0,-100.00,SE,145,19.0,24.0,77,-99.99,,,-99.99,,2013-12-05 05:02:00,
2013-12-05 00:23:00,59.0,52.0,-100.00,SE,145,16.0,23.0,78,-99.99,,,-99.99,,2013-12-05 05:23:00,
2013-12-05 00:52:00,60.0,53.0,-100.00,SSE,155,15.0,19.0,78,-99.99,,,-99.99,,2013-12-05 05:52:00,
2013-12-05 01:22:00,60.0,53.0,-100.00,South,175,15.0,20.0,78,-99.99,,,-99.99,,2013-12-05 06:22:00,
2013-12-05 01:32:00,60.0,53.0,-100.00,South,175,15.0,20.0,78,-99.99,,,-99.99,,2013-12-05 06:32:00,
2013-12-05 01:52:00,60.0,54.0,-100.00,South,175,12.0,24.0,78,-99.99,,,-99.99,,2013-12-05 06:52:00,
2013-12-05 02:22:00,60.0,54.0,-100.00,South,170,12.0,21.0,79,-99.99,,,-99.99,,2013-12-05 07:22:00,
2013-12-05 02:52:00,59.0,54.0,-100.00,South,180,11.0,17.0,81,-99.99,,,-99.99,,2013-12-05 07:52:00,
2013-12-05 03:22:00,60.0,54.0,-100.00,South,190,13.0,20.0,80,-99.99,,,-99.99,,2013-12-05 08:22:00,
2013-12-05 03:53:00,59.0,53.0,-100.00,South,175,11.0,17.0,81,-99.99,,,-99.99,,2013-12-05 08:53:00,
2013-12-05 04:02:00,59.0,53.0,-100.00,South,175,11.0,17.0,81,-99.99,,,-99.99,,2013-12-05 09:02:00,
2013-12-05 04:22:00,59.0,53.0,-100.00,South,185,13.0,21.0,81,-99.99,,,-99.99,,2013-12-05 09:22:00,
2013-12-05 04:53:00,59.0,54.0,-100.00,South,175,12.0,22.0,82,-99.99,,,-99.99,,2013-12-05 09:53:00,
2013-12-05 05:23:00,58.0,53.0,-100.00,SSW,195,14.0,21.0,82,-99.99,,,-99.99,,2013-12-05 10:23:00,
2013-12-05 05:53:00,58.0,53.0,-100.00,South,190,12.0,22.0,83,-99.99,,,-99.99,,2013-12-05 10:53:00,
2013-12-05 06:22:00,57.0,51.0,-100.00,SW,215,16.0,24.0,80,-99.99,,,-99.99,,2013-12-05 11:22:00,
2013-12-05 06:42:00,57.0,51.0,-100.00,SW,225,12.0,22.0,80,-99.99,,,-99.99,,2013-12-05 11:42:00,
2013-12-05 06:53:00,56.0,49.0,-100.00,WSW,240,12.0,21.0,79,-99.99,,,-99.99,,2013-12-05 11:53:00,
2013-12-05 07:22:00,52.0,47.0,-100.00,SW,230,10.0,16.0,82,-99.99,,,-99.99,,2013-12-05 12:22:00,
2013-12-05 07:52:00,50.0,44.0,-100.00,SW,215,14.0,26.0,79,-99.99,,,-99.99,,2013-12-05 12:52:00,
2013-12-05 08:22:00,47.0,41.0,-100.00,SW,225,14.0,21.0,78,-99.99,,,-99.99,,2013-12-05 13:22:00,
2013-12-05 08:52:00,46.0,39.0,-100.00,SW,230,11.0,19.0,78,-99.99,,,-99.99,,2013-12-05 13:52:00,
2013-12-05 09:22:00,45.0,39.0,-100.00,SW,220,11.0,19.0,78,-99.99,,,-99.99,,2013-12-05 14:22:00,
2013-12-05 09:42:00,45.0,38.0,-100.00,SW,230,14.0,22.0,78,-99.99,,,-99.99,,2013-12-05 14:42:00,
2013-12-05 09:52:00,44.0,38.0,-100.00,SW,235,13.0,23.0,78,-99.99,,,-99.99,,2013-12-05 14:52:00,
2013-12-05 10:22:00,43.0,36.0,-100.00,WSW,245,16.0,21.0,75,-99.99,,,-99.99,,2013-12-05 15:22:00,
2013-12-05 10:43:00,43.0,36.0,-100.00,SW,225,9.0,24.0,76,-99.99,,,-99.99,,2013-12-05 15:43:00,
2013-12-05 10:54:00,44.0,36.0,-100.00,WSW,245,14.0,20.0,74,-99.99,,,-99.99,,2013-12-05 15:54:00,
2013-12-05 11:23:00,43.0,35.0,-100.00,WSW,240,15.0,20.0,73,-99.99,,,-99.99,,2013-12-05 16:23:00,
2013-12-05 11:53:00,42.0,33.0,-100.00,WSW,255,14.0,21.0,70,-99.99,,,-99.99,,2013-12-05 16:53:00,
2013-12-05 12:23:00,41.0,31.0,-100.00,SW,235,13.0,22.0,67,-99.99,,,-99.99,,2013-12-05 17:23:00,
2013-12-05 12:52:00,40.0,30.0,-100.00,SW,230,14.0,20.0,66,-99.99,,,-99.99,,2013-12-05 17:52:00,
2013-12-05 13:22:00,40.0,29.0,-100.00,SW,235,13.0,21.0,66,-99.99,,,-99.99,,2013-12-05 18:22:00,
2013-12-05 13:52:00,40.0,29.0,-100.00,SW,235,13.0,24.0,65,-99.99,,,-99.99,,2013-12-05 18:52:00,
2013-12-05 14:21:00,39.0,29.0,-100.00,WSW,250,12.0,19.0,67,-99.99,,,-99.99,,2013-12-05 19:21:00,
2013-12-05 14:42:00,38.0,28.0,-100.00,SW,225,10.0,19.0,66,-99.99,,,-99.99,,2013-12-05 19:42:00,
2013-12-05 14:52:00,38.0,28.0,-100.00,WSW,240,12.0,17.0,66,-99.99,,,-99.99,,2013-12-05 19:52:00,
2013-12-05 15:22:00,38.0,28.0,-100.00,West,265,8.0,17.0,65,-99.99,,,-99.99,,2013-12-05 20:22:00,
2013-12-05 15:52:00,38.0,27.0,-100.00,West,260,10.0,17.0,65,-99.99,,,-99.99,,2013-12-05 20:52:00,
2013-12-05 16:22:00,37.0,26.0,-100.00,West,260,9.0,17.0,64,-99.99,,,-99.99,,2013-12-05 21:22:00,
2013-12-05 16:53:00,37.0,26.0,-100.00,WSW,250,10.0,14.0,64,-99.99,,,-99.99,,2013-12-05 21:53:00,
2013-12-05 17:13:00,37.0,26.0,-100.00,WSW,240,11.0,17.0,65,-99.99,,,-99.99,,2013-12-05 22:13:00,
2013-12-05 17:24:00,37.0,27.0,-100.00,SW,230,10.0,18.0,67,-99.99,,,-99.99,,2013-12-05 22:24:00,
2013-12-05 17:52:00,36.0,27.0,-100.00,WSW,245,8.0,16.0,69,-99.99,,,-99.99,,2013-12-05 22:52:00,
2013-12-05 18:22:00,36.0,27.0,-100.00,SW,235,9.0,13.0,68,-99.99,,,-99.99,,2013-12-05 23:22:00,
2013-12-05 18:53:00,36.0,25.0,-100.00,West,260,6.0,11.0,64,-99.99,,,-99.99,,2013-12-05 23:53:00,
2013-12-05 19:22:00,35.0,25.0,-100.00,WSW,250,9.0,11.0,65,-99.99,,,-99.99,,2013-12-06 00:22:00,
2013-12-05 19:42:00,35.0,24.0,-100.00,SW,235,7.0,13.0,64,-99.99,,,-99.99,,2013-12-06 00:42:00,
2013-12-05 19:52:00,35.0,24.0,-100.00,SW,235,7.0,13.0,64,-99.99,,,-99.99,,2013-12-06 00:52:00,
2013-12-05 20:22:00,35.0,24.0,-100.00,West,270,7.0,13.0,64,-99.99,,,-99.99,,2013-12-06 01:22:00,
2013-12-05 20:52:00,35.0,24.0,-100.00,West,270,9.0,17.0,63,-99.99,,,-99.99,,2013-12-06 01:52:00,
2013-12-05 21:22:00,34.0,23.0,-100.00,West,275,11.0,19.0,64,-99.99,,,-99.99,,2013-12-06 02:22:00,
2013-12-05 21:32:00,34.0,23.0,-100.00,West,275,11.0,19.0,64,-99.99,,,-99.99,,2013-12-06 02:32:00,
2013-12-05 21:52:00,33.0,25.0,-100.00,West,275,6.0,9.0,71,-99.99,,,-99.99,,2013-12-06 02:52:00,
2013-12-05 22:02:00,33.0,25.0,-100.00,West,275,6.0,9.0,71,-99.99,,,-99.99,,2013-12-06 03:02:00,
2013-12-05 22:22:00,33.0,24.0,-100.00,WSW,250,10.0,15.0,71,-99.99,,,-99.99,,2013-12-06 03:22:00,
2013-12-05 22:53:00,32.0,23.0,-100.00,West,265,7.0,14.0,71,-99.99,,,-99.99,,2013-12-06 03:53:00,
2013-12-05 23:23:00,31.0,24.0,-100.00,WSW,250,6.0,11.0,73,-99.99,,,-99.99,,2013-12-06 04:23:00,
2013-12-05 23:53:00,31.0,24.0,-100.00,SW,225,4.0,7.0,72,-99.99,,,-99.99,,2013-12-06 04:53:00,